Location: Moscow
(38.3171°N, 79.0889°W)
Time: 22:25:16
(UTC+00:00)

Iridium 4 Rocket - Pass Details

Date: 07 November 2025
Orbit: 579 x 887 km, 86.9° (Epoch: 14 December)

Event Time Altitude Azimuth Distance (km) Brightness Sun altitude
Rises 22:59:11 0° 187° (S) 3,441 7.2 -10.0°
Reaches altitude 10° 23:01:40 10° 190° (S) 2,481 6.5 -10.5°
Maximum altitude 23:07:15 66° 272° (W) 889 4.1 -11.6°
Drops below altitude 10° 23:12:28 10° 355° (N) 2,323 5.9 -12.6°
Sets 23:14:45 0° 359° (N) 3,206 6.6 -13.0°
